Weather History for KBYY - November, 2012

Change the Weather History Date:

Saturday, November 24, 2012

  Actual Average (KLBX) Record (KLBX)
Temperature  
Mean Temperature 56 °F -  
Max Temperature 68 °F 67 °F 82 °F (2010)
Min Temperature 45 °F 50 °F 37 °F (2003)
Degree Days  
Heating Degree Days 8    
Growing Degree Days 6 (Base 50)    
Moisture  
Dew Point 40 °F    
Average Humidity 56    
Maximum Humidity 100    
Minimum Humidity 26    
Precipitation  
Precipitation 0.00 in - - ()
Sea Level Pressure  
Sea Level Pressure 30.28 in    
Wind  
Wind Speed 7 mph (NNE)    
Max Wind Speed 14 mph    
Max Gust Speed 18 mph    
Visibility 10 miles    
Events      
Averages and records for this station are not official NWS values.
T = Trace of Precipitation, MM = Missing Value Source: NWS Daily Summary

Daily Weather History Graph

Daily Weather History Graph

Search for Another Location

Airport or City:

Trip Planner

Search our weather history database for the weather conditions in past years. The results will help you decide how hot, cold, wet, or windy it might be!

Date:

Astronomy

Nov. 24, 2012 Rise Set
Actual Time 6:54 AM CST 5:26 PM CST
Civil Twilight 6:28 AM CST 5:51 PM CST
Nautical Twilight 5:59 AM CST 6:20 PM CST
Astronomical Twilight 5:31 AM CST 6:49 PM CST
Moon 2:59 PM CST (11/24) 3:25 AM CST (11/24)
Length of Visible Light 11h 22m
Length of Day
10h 31m
Waxing Gibbous, 87% of the Moon is Illuminated
Nov 24
Waxing Gibbous
Nov 28
Full
Dec 6
Last Quarter
Dec 13
New
Dec 19
First Quarter

Hourly Weather History & Observations

Time (CST) Temp. Dew Point Humidity Pressure Visibility Wind Dir Wind Speed Gust Speed Precip Events Conditions
12:15 AM 62.8 °F 59.9 °F 90% 30.31 in 10.0 mi NNE 8.1 mph - N/A   Overcast
12:35 AM 62.6 °F 56.7 °F 81% 30.30 in 10.0 mi NNE 8.1 mph - N/A   Overcast
12:55 AM 62.1 °F 56.1 °F 81% 30.30 in 10.0 mi North 6.9 mph - N/A   Overcast
1:15 AM 61.9 °F 55.9 °F 81% 30.30 in 10.0 mi NNE 5.8 mph - N/A   Overcast
1:35 AM 61.5 °F 54.0 °F 76% 30.29 in 10.0 mi North 8.1 mph - N/A   Overcast
1:55 AM 61.2 °F 51.8 °F 71% 30.30 in 10.0 mi NNE 10.4 mph 17.3 mph N/A   Overcast
2:15 AM 61.2 °F 49.8 °F 66% 30.29 in 10.0 mi NNE 9.2 mph - N/A   Overcast
2:35 AM 61.0 °F 49.1 °F 65% 30.29 in 10.0 mi NNE 6.9 mph - N/A   Overcast
2:55 AM 61.0 °F 48.4 °F 63% 30.29 in 10.0 mi NNE 8.1 mph - N/A   Overcast
3:15 AM 60.8 °F 47.7 °F 62% 30.29 in 10.0 mi NNE 6.9 mph - N/A   Overcast
3:35 AM 60.8 °F 47.1 °F 61% 30.30 in 10.0 mi NNE 6.9 mph - N/A   Overcast
3:55 AM 60.3 °F 46.0 °F 59% 30.30 in 10.0 mi NNE 6.9 mph - N/A   Overcast
4:15 AM 59.7 °F 45.5 °F 59% 30.31 in 10.0 mi North 8.1 mph - N/A   Overcast
4:35 AM 58.6 °F 44.2 °F 59% 30.31 in 10.0 mi North 10.4 mph - N/A   Overcast
4:55 AM 57.2 °F 41.9 °F 57% 30.32 in 10.0 mi North 6.9 mph - N/A   Overcast
5:15 AM 55.9 °F 39.6 °F 54% 30.32 in 10.0 mi North 9.2 mph - N/A   Mostly Cloudy
5:35 AM 54.7 °F 38.5 °F 54% 30.33 in 10.0 mi North 5.8 mph - N/A   Clear
5:55 AM 53.6 °F 37.9 °F 55% 30.32 in 10.0 mi North 8.1 mph - N/A   Clear
6:15 AM 53.2 °F 37.4 °F 55% 30.33 in 10.0 mi North 5.8 mph - N/A   Clear
6:35 AM 52.5 °F 37.4 °F 56% 30.34 in 10.0 mi North 6.9 mph - N/A   Scattered Clouds
6:55 AM 52.0 °F 37.4 °F 58% 30.35 in 10.0 mi North 6.9 mph - N/A   Scattered Clouds
7:15 AM 52.9 °F 36.3 °F 53% 30.35 in 10.0 mi North 11.5 mph - N/A   Mostly Cloudy
7:35 AM 53.4 °F 34.5 °F 49% 30.37 in 10.0 mi NNE 6.9 mph - N/A   Mostly Cloudy
7:55 AM 52.9 °F 34.3 °F 49% 30.37 in 10.0 mi NNE 9.2 mph - N/A   Scattered Clouds
8:15 AM 53.6 °F 33.4 °F 46% 30.37 in 10.0 mi NNE 9.2 mph - N/A   Clear
8:35 AM 54.5 °F 33.3 °F 45% 30.37 in 10.0 mi North 13.8 mph - N/A   Clear
8:55 AM 55.2 °F 33.3 °F 43% 30.36 in 10.0 mi NNE 10.4 mph 18.4 mph N/A   Clear
9:15 AM 55.8 °F 33.3 °F 43% 30.36 in 10.0 mi NNE 11.5 mph 18.4 mph N/A   Clear
9:35 AM 56.5 °F 34.0 °F 43% 30.36 in 10.0 mi North 12.7 mph - N/A   Clear
9:55 AM 57.7 °F 34.0 °F 41% 30.36 in 10.0 mi North 12.7 mph - N/A   Clear
10:15 AM 58.6 °F 33.8 °F 39% 30.36 in 10.0 mi NNE 8.1 mph - N/A   Clear
10:35 AM 59.2 °F 34.0 °F 39% 30.35 in 10.0 mi NE 9.2 mph - N/A   Clear
10:55 AM 60.6 °F 34.2 °F 37% 30.34 in 10.0 mi NE 8.1 mph - N/A   Clear
11:15 AM 62.1 °F 34.7 °F 36% 30.34 in 10.0 mi NNE 8.1 mph - N/A   Clear
11:35 AM 63.7 °F 35.6 °F 35% 30.33 in 10.0 mi North 9.2 mph - N/A   Clear
11:55 AM 64.4 °F 35.1 °F 34% 30.32 in 10.0 mi North 6.9 mph - N/A   Clear
12:15 PM 64.9 °F 34.9 °F 33% 30.31 in 10.0 mi NE 6.9 mph - N/A   Clear
12:35 PM 66.0 °F 34.9 °F 32% 30.29 in 10.0 mi NNE 4.6 mph - N/A   Clear
12:55 PM 66.7 °F 34.7 °F 31% 30.28 in 10.0 mi North 6.9 mph - N/A   Clear
1:15 PM 67.3 °F 33.8 °F 29% 30.27 in 10.0 mi NNE 6.9 mph - N/A   Clear
1:35 PM 68.0 °F 33.4 °F 28% 30.26 in 10.0 mi NE 8.1 mph - N/A   Clear
1:55 PM 68.2 °F 33.6 °F 28% 30.25 in 10.0 mi NNE 5.8 mph - N/A   Clear
2:15 PM 68.5 °F 33.1 °F 27% 30.24 in 10.0 mi NE 5.8 mph - N/A   Clear
2:35 PM 68.5 °F 33.3 °F 27% 30.24 in 10.0 mi NE 3.5 mph - N/A   Clear
2:55 PM 68.7 °F 33.3 °F 27% 30.23 in 10.0 mi North 4.6 mph - N/A   Clear
3:15 PM 68.7 °F 33.1 °F 27% 30.22 in 10.0 mi East 5.8 mph - N/A   Clear
3:35 PM 68.9 °F 32.7 °F 26% 30.22 in 10.0 mi NE 3.5 mph - N/A   Clear
3:55 PM 68.5 °F 32.9 °F 27% 30.22 in 10.0 mi ENE 4.6 mph - N/A   Clear
4:15 PM 68.0 °F 33.3 °F 28% 30.22 in 10.0 mi ENE 3.5 mph - N/A   Clear
4:35 PM 67.1 °F 32.9 °F 28% 30.21 in 10.0 mi Calm Calm - N/A   Clear
4:55 PM 66.0 °F 34.5 °F 31% 30.21 in 10.0 mi East 3.5 mph - N/A   Clear
5:15 PM 63.7 °F 36.9 °F 37% 30.21 in 10.0 mi ENE 4.6 mph - N/A   Clear
5:35 PM 60.4 °F 37.9 °F 43% 30.21 in 10.0 mi Calm Calm - N/A   Clear
5:55 PM 58.3 °F 38.3 °F 47% 30.21 in 10.0 mi Calm Calm - N/A   Clear
6:15 PM 55.0 °F 41.5 °F 60% 30.21 in 10.0 mi ESE 4.6 mph - N/A   Clear
6:35 PM 52.5 °F 42.1 °F 68% 30.21 in 10.0 mi ESE 4.6 mph - N/A   Clear
6:55 PM 52.3 °F 43.2 °F 71% 30.22 in 10.0 mi Calm Calm - N/A   Clear
7:15 PM 52.2 °F 43.5 °F 72% 30.22 in 10.0 mi Calm Calm - N/A   Clear
7:35 PM 52.0 °F 43.5 °F 73% 30.22 in 10.0 mi Calm Calm - N/A   Clear
7:55 PM 51.4 °F 43.7 °F 75% 30.22 in 10.0 mi Calm Calm - N/A   Clear
8:15 PM 51.1 °F 43.7 °F 76% 30.22 in 10.0 mi Calm Calm - N/A   Clear
8:35 PM 49.6 °F 43.3 °F 79% 30.22 in 10.0 mi Calm Calm - N/A   Clear
8:55 PM 48.6 °F 43.7 °F 83% 30.22 in 10.0 mi Calm Calm - N/A   Clear
9:15 PM 48.4 °F 43.3 °F 83% 30.21 in 10.0 mi Calm Calm - N/A   Clear
9:35 PM 47.3 °F 43.2 °F 86% 30.21 in 10.0 mi Calm Calm - N/A   Clear
9:55 PM 46.2 °F 45.1 °F 96% 30.21 in 10.0 mi Calm Calm - N/A   Clear
10:15 PM 46.6 °F 43.7 °F 90% 30.21 in 10.0 mi Calm Calm - N/A   Clear
10:35 PM 46.6 °F 43.5 °F 89% 30.21 in 10.0 mi Calm Calm - N/A   Clear
10:55 PM 45.9 °F 44.4 °F 95% 30.20 in 10.0 mi Calm Calm - N/A   Clear
11:15 PM 45.7 °F 45.7 °F 100% 30.20 in 10.0 mi Calm Calm - N/A   Clear
11:35 PM 45.5 °F 45.5 °F 100% 30.19 in 10.0 mi Calm Calm - N/A   Clear
11:55 PM 45.5 °F 45.5 °F 100% 30.18 in 10.0 mi Calm Calm - N/A   Clear